Portada
METAR-TAF:

METAR-TAF

Aeropuertos :

Bushehr, Irán

latitud: 28-59N, longitud: 050-50E, altitud: 19 m

Observación

El informe se hizo hace 32 minutos, a las 12:00 UTC
Viento 10 kt del oeste-noroeste
Temperatura 27°C
Humedad 45%
Presión 1013 hPa
Visibilidad 10 km o más
sin nubes por debajo de 1500 m y sin presencia de cumulonimbus.

METAR: OIBB 041200Z 30010KT CAVOK 27/14 Q1012 A2991

Hora: 17:02 (12:32 UTC)


TAF: falta

Observaciones y pronósticos meteorológicos de más de 4000 aeropuertos (mensajes METAR y TAF).

Los puntos amarillos y rojos representan las estaciones disponibles.

Ponga el ratón en el punto deseado para ver el nombre de la estación.

Haga clic para ver las observaciones y los pronósticos meteorológicos.

Para cambiar el mapa : haga clic en los botones verdes con una cruz de color negro para hacer un zoom, en el botón verde con un guión para alejar o en las flechas verdes para mapas adyacentes.


METAR-TAF: